Harrisburg, IL

4:40 AM CST on December 13, 2019 (GMT -0600)
Harrisburg-Raleigh

Weather History for KHSB - October, 2019

Change the Weather History Date:

Saturday, October 26, 2019

  Actual Average (KMWA) Record (KMWA)
Temperature  
Mean Temperature 58 °F -  
Max Temperature 67 °F 65 °F 80 °F (2000)
Min Temperature 50 °F 40 °F 25 °F (1968)
Degree Days  
Heating Degree Days 6    
Growing Degree Days 8 (Base 50)    
Moisture  
Dew Point 51 °F    
Average Humidity 89    
Maximum Humidity 90    
Minimum Humidity 81    
Precipitation  
Precipitation 2.20 in - - ()
Sea Level Pressure  
Sea Level Pressure 29.72 in    
Wind  
Wind Speed 9 mph ()    
Max Wind Speed 23 mph    
Max Gust Speed 32 mph    
Visibility 7.4 miles    
Events Rain    
Averages and records for this station are not official NWS values.
T = Trace of Precipitation, MM = Missing Value Source: Averaged Metar Reports

Daily Weather History Graph

Daily Weather History Graph

Search for Another Location

Airport or City:

Astronomy

Oct. 26, 2019 Rise Set
Actual Time 7:13 AM CDT 6:02 PM CDT
Civil Twilight 6:46 AM CDT 6:29 PM CDT
Nautical Twilight 6:15 AM CDT 7:00 PM CDT
Astronomical Twilight 5:45 AM CDT 7:30 PM CDT
Moon 5:11 AM CDT (10/26) 5:35 PM CDT (10/26)
Length of Visible Light 11h 43m
Length of Day
10h 49m
Waning Crescent, 3% of the Moon is Illuminated
Oct 26
Waning Crescent
Oct 27
New
Nov 4
First Quarter
Nov 12
Full
Nov 19
Last Quarter

Hourly Weather History & Observations

Time (CDT) Temp. Dew Point Humidity Pressure Visibility Wind Dir Wind Speed Gust Speed Precip Events Conditions
12:15 AM 53.1 °F 47.5 °F 81% 30.09 in 10.0 mi NE 6.9 mph - N/A   Mostly Cloudy
12:35 AM 52.7 °F 48.2 °F 85% 30.07 in 10.0 mi ENE 5.8 mph - N/A Rain Light Rain
12:55 AM 52.2 °F 48.9 °F 89% 30.06 in 10.0 mi NNE 6.9 mph - N/A Rain Light Rain
1:15 AM 52.2 °F 49.1 °F 89% 30.05 in 10.0 mi NE 5.8 mph - 0.02 in Rain Rain
1:35 AM 51.6 °F 48.6 °F 89% 30.04 in 10.0 mi NNE 5.8 mph - 0.03 in Rain Rain
1:55 AM 51.1 °F 48.2 °F 90% 30.03 in 7.0 mi NE 3.5 mph - 0.05 in Rain Rain
2:15 AM 51.3 °F 48.2 °F 89% 30.01 in 7.0 mi NNE 4.6 mph - 0.01 in Rain Rain
2:35 AM 51.1 °F 48.2 °F 90% 30.00 in 7.0 mi NNE 6.9 mph - 0.02 in Rain Rain
3:15 AM 51.3 °F 48.2 °F 89% 29.97 in 5.0 mi NNE 10.4 mph - 0.03 in Rain Heavy Rain
3:35 AM 51.3 °F 48.2 °F 89% 29.96 in 5.0 mi NE 9.2 mph - 0.09 in Rain Heavy Rain
3:55 AM 51.4 °F 48.4 °F 89% 29.94 in 4.0 mi NE 11.5 mph - 0.16 in Rain Heavy Rain
4:15 AM 51.4 °F 48.4 °F 89% 29.94 in 4.0 mi NE 9.2 mph - 0.06 in Rain Heavy Rain
4:35 AM 51.6 °F 48.6 °F 89% 29.92 in 3.0 mi NE 11.5 mph 18.4 mph 0.16 in Rain Heavy Rain
4:55 AM 51.8 °F 48.6 °F 89% 29.91 in 4.0 mi NNE 11.5 mph - 0.23 in Rain Heavy Rain
5:15 AM 51.6 °F 48.6 °F 89% 29.89 in 2.5 mi NNE 15.0 mph 19.6 mph 0.12 in Rain Heavy Rain
5:55 AM 51.4 °F 48.4 °F 89% 29.88 in 4.0 mi NNE 13.8 mph 17.3 mph 0.38 in Rain Heavy Rain
6:15 AM 51.4 °F 48.4 °F 89% 29.85 in 7.0 mi NE 17.3 mph 24.2 mph 0.03 in Rain Rain
6:35 AM 51.4 °F 48.4 °F 89% 29.83 in 7.0 mi NE 10.4 mph - 0.08 in Rain Rain
6:55 AM 51.4 °F 48.4 °F 89% 29.83 in 5.0 mi ENE 9.2 mph - 0.14 in Rain Rain
7:15 AM 52.0 °F 49.1 °F 90% 29.82 in 7.0 mi NE 11.5 mph 16.1 mph 0.07 in Rain Heavy Rain
7:35 AM 52.2 °F 49.1 °F 89% 29.81 in 7.0 mi NE 9.2 mph 16.1 mph 0.13 in Rain Rain
7:55 AM 52.2 °F 49.1 °F 89% 29.79 in 7.0 mi NE 9.2 mph 16.1 mph 0.19 in Rain Rain
8:35 AM 52.2 °F 49.1 °F 89% 29.78 in 3.0 mi NE 8.1 mph - 0.19 in Rain Heavy Rain
9:15 AM 52.5 °F 49.3 °F 89% 29.78 in 2.5 mi NNE 4.6 mph - 0.13 in Rain Heavy Rain
9:35 AM 52.7 °F 49.5 °F 89% 29.76 in 5.0 mi NNE 5.8 mph - 0.23 in Rain Rain
9:55 AM 52.7 °F 49.5 °F 89% 29.74 in 4.0 mi NNE 6.9 mph - 0.29 in Rain Heavy Rain
10:15 AM 52.7 °F 49.6 °F 89% 29.72 in 4.0 mi NNE 10.4 mph - 0.07 in Rain Heavy Rain
10:35 AM 52.7 °F 49.6 °F 89% 29.68 in 5.0 mi NE 10.4 mph 17.3 mph 0.15 in Rain Heavy Rain
10:55 AM 53.1 °F 50.0 °F 89% 29.66 in 3.0 mi NE 11.5 mph - 0.27 in Rain Heavy Rain
11:15 AM 53.6 °F 50.4 °F 89% 29.64 in 4.0 mi ENE 12.7 mph 18.4 mph 0.07 in Rain Heavy Rain
11:55 AM 55.0 °F 51.8 °F 89% 29.59 in 10.0 mi ENE 9.2 mph - 0.18 in Rain Light Rain
12:15 PM 56.8 °F 53.6 °F 89% 29.57 in 7.0 mi East 8.1 mph 16.1 mph 0.02 in Rain Rain
12:35 PM 58.3 °F 55.0 °F 89% 29.53 in 7.0 mi East 9.2 mph - 0.05 in Rain Rain
12:55 PM 59.7 °F 56.3 °F 88% 29.52 in 10.0 mi ESE 9.2 mph - 0.06 in Rain Light Rain
1:15 PM 61.9 °F 58.6 °F 89% 29.49 in 7.0 mi ESE 11.5 mph 16.1 mph 0.01 in Rain Light Rain
1:35 PM 64.6 °F 61.5 °F 90% 29.45 in 7.0 mi ESE 15.0 mph 20.7 mph 0.01 in Rain Light Rain
1:55 PM 65.8 °F 62.6 °F 89% 29.42 in 3.0 mi ESE 13.8 mph - 0.02 in Rain Light Rain
2:15 PM 66.6 °F 63.1 °F 89% 29.39 in 7.0 mi ESE 15.0 mph 24.2 mph N/A Rain Rain
2:35 PM 67.1 °F 63.7 °F 89% 29.37 in 10.0 mi ESE 18.4 mph 24.2 mph N/A   Overcast
3:15 PM 62.2 °F 59.0 °F 89% 29.41 in 10.0 mi WSW 15.0 mph 21.9 mph 0.01 in Rain Rain
3:35 PM 58.3 °F 55.2 °F 90% 29.45 in 10.0 mi SW 16.1 mph 20.7 mph 0.01 in   Overcast
3:55 PM 55.6 °F 52.3 °F 89% 29.50 in 10.0 mi SW 15.0 mph 23.0 mph 0.01 in   Overcast
4:15 PM 54.5 °F 51.4 °F 89% 29.51 in 7.0 mi WSW 16.1 mph 26.5 mph N/A   Drizzle
4:35 PM 54.5 °F 51.4 °F 89% 29.48 in 10.0 mi West 10.4 mph - N/A Rain Light Rain
4:55 PM 54.7 °F 51.8 °F 90% 29.47 in 10.0 mi WSW 10.4 mph - N/A   Overcast
5:15 PM 54.7 °F 51.8 °F 90% 29.49 in 10.0 mi WSW 8.1 mph - N/A   Overcast
5:35 PM 54.5 °F 51.3 °F 89% 29.56 in 10.0 mi SW 21.9 mph 32.2 mph N/A   Overcast
5:55 PM 54.1 °F 51.1 °F 89% 29.58 in 10.0 mi WSW 16.1 mph 24.2 mph N/A   Overcast
6:15 PM 54.1 °F 50.9 °F 89% 29.58 in 10.0 mi WSW 18.4 mph 27.6 mph N/A   Overcast
6:35 PM 53.6 °F 50.4 °F 89% 29.61 in 10.0 mi WSW 23.0 mph 32.2 mph N/A   Overcast
6:55 PM 52.9 °F 50.0 °F 90% 29.62 in 5.0 mi WSW 13.8 mph 23.0 mph N/A   Overcast
7:15 PM 52.7 °F 49.6 °F 89% 29.62 in 4.0 mi WSW 11.5 mph 21.9 mph N/A   Overcast
7:35 PM 52.7 °F 49.6 °F 89% 29.63 in 7.0 mi WSW 11.5 mph - N/A   Overcast
7:55 PM 53.1 °F 50.0 °F 89% 29.64 in 7.0 mi WSW 8.1 mph 16.1 mph N/A Rain Heavy Rain
8:15 PM 52.9 °F 49.6 °F 89% 29.66 in 10.0 mi WSW 9.2 mph - N/A Rain Light Rain
8:35 PM 52.9 °F 49.6 °F 89% 29.66 in 7.0 mi WSW 10.4 mph - N/A Rain Rain
8:55 PM 52.7 °F 49.6 °F 89% 29.67 in 10.0 mi WSW 6.9 mph - 0.01 in   Overcast
9:35 PM 52.2 °F 49.1 °F 89% 29.72 in 10.0 mi West 17.3 mph - N/A   Overcast
9:55 PM 51.8 °F 48.4 °F 88% 29.73 in 10.0 mi West 15.0 mph 19.6 mph N/A   Overcast
10:15 PM 51.4 °F 48.4 °F 89% 29.74 in 10.0 mi WSW 12.7 mph 17.3 mph N/A   Overcast
10:35 PM 51.1 °F 48.2 °F 90% 29.76 in 10.0 mi West 15.0 mph 18.4 mph N/A   Overcast
10:55 PM 51.1 °F 47.8 °F 89% 29.77 in 10.0 mi WSW 10.4 mph - N/A   Overcast
11:15 PM 50.9 °F 47.7 °F 89% 29.79 in 10.0 mi West 12.7 mph - N/A   Overcast
11:35 PM 51.1 °F 47.7 °F 88% 29.80 in 10.0 mi WSW 9.2 mph - N/A   Overcast
11:55 PM 51.1 °F 47.8 °F 89% 29.81 in 10.0 mi WSW 8.1 mph - N/A   Overcast